Custer, SD

11:16 PM MDT on September 19, 2017 (GMT -0600)
Custer County

Weather History for KCUT - November, 2013

Change the Weather History Date:

Sunday, November 24, 2013

  Actual Average Record
Temperature  
Mean Temperature 39 °F 28 °F  
Max Temperature 56 °F 38 °F 59 °F (1942)
Min Temperature 22 °F 18 °F -15 °F (1993)
Degree Days  
Heating Degree Days 26 37  
Month to date heating degree days 804 770  
Since 1 July heating degree days 1932 1949  
Cooling Degree Days 0 0  
Month to date cooling degree days 0 0  
Year to date cooling degree days 187 177  
Moisture  
Dew Point 16 °F    
Average Humidity 43    
Maximum Humidity 58    
Minimum Humidity 27    
Precipitation  
Precipitation 0.00 in 0.02 in 0.36 in (1959)
Month to date precipitation 0.61 0.51  
Year to date precipitation 21.42 18.47  
Sea Level Pressure  
Sea Level Pressure 30.07 in    
Wind  
Wind Speed 7 mph (WNW)    
Max Wind Speed 18 mph    
Max Gust Speed 24 mph    
Visibility 10 miles    
Events      
T = Trace of Precipitation, MM = Missing Value Source: NWS Daily Summary

Daily Weather History Graph

Daily Weather History Graph

Search for Another Location

Airport or City:

Trip Planner

Search our weather history database for the weather conditions in past years. The results will help you decide how hot, cold, wet, or windy it might be!

Date:

Astronomy

Nov. 24, 2013 Rise Set
Actual Time 7:00 AM MST 4:21 PM MST
Civil Twilight 6:28 AM MST 4:53 PM MST
Nautical Twilight 5:53 AM MST 5:28 PM MST
Astronomical Twilight 5:19 AM MST 6:03 PM MST
Moon 10:56 PM MST (11/24) 11:43 AM MST (11/24)
Length of Visible Light 10h 24m
Length of Day
9h 21m
Waning Gibbous, 60% of the Moon is Illuminated
Nov 24
Waning Gibbous
Nov 25
Last Quarter
Dec 2
New
Dec 9
First Quarter
Dec 17
Full

Hourly Weather History & Observations

Time (MST) Temp. Windchill Dew Point Humidity Pressure Visibility Wind Dir Wind Speed Gust Speed Precip Events Conditions
12:53 AM 24.1 °F 14.4 °F 5.0 °F 44% 30.32 in 10.0 mi West 9.2 mph - N/A   Clear
1:53 AM 25.0 °F 15.5 °F 6.1 °F 45% 30.30 in 10.0 mi West 9.2 mph - N/A   Clear
2:53 AM 25.0 °F 15.5 °F 3.9 °F 41% 30.27 in 10.0 mi West 9.2 mph - N/A   Clear
3:53 AM 27.0 °F 18.0 °F 5.0 °F 39% 30.24 in 10.0 mi WSW 9.2 mph - N/A   Clear
4:53 AM 27.0 °F 18.7 °F 7.0 °F 43% 30.23 in 10.0 mi WSW 8.1 mph - N/A   Clear
5:53 AM 26.1 °F 18.4 °F 12.9 °F 58% 30.22 in 10.0 mi West 6.9 mph - N/A   Clear
6:53 AM 27.0 °F 18.7 °F 14.0 °F 58% 30.20 in 10.0 mi West 8.1 mph - N/A   Clear
7:53 AM 30.0 °F 23.2 °F 18.0 °F 61% 30.15 in 10.0 mi West 6.9 mph - N/A   Clear
8:53 AM 35.1 °F 28.6 °F 19.9 °F 54% 30.10 in 10.0 mi West 8.1 mph - N/A   Clear
9:53 AM 39.9 °F 35.1 °F 23.0 °F 51% 30.05 in 10.0 mi West 6.9 mph - N/A   Clear
10:53 AM 46.0 °F 44.8 °F 25.0 °F 44% 29.99 in 10.0 mi Variable 3.5 mph - N/A   Clear
11:53 AM 50.0 °F - 27.0 °F 41% 29.94 in 10.0 mi ESE 3.5 mph - N/A   Clear
12:53 PM 54.0 °F - 24.1 °F 31% 29.90 in 10.0 mi Calm Calm - N/A   Clear
1:53 PM 51.1 °F - 21.9 °F 32% 29.91 in 10.0 mi ENE 10.4 mph - N/A   Clear
2:53 PM 48.9 °F - 19.9 °F 32% 29.92 in 10.0 mi Variable 3.5 mph - N/A   Clear
3:53 PM 46.0 °F 43.9 °F 19.9 °F 35% 29.93 in 10.0 mi NE 4.6 mph - N/A   Clear
4:53 PM 37.9 °F - 19.9 °F 48% 29.97 in 10.0 mi Calm Calm - N/A   Clear
5:53 PM 35.1 °F 30.1 °F 14.0 °F 42% 30.00 in 10.0 mi NNW 5.8 mph - N/A   Clear
6:53 PM 39.0 °F 34.8 °F 8.1 °F 28% 30.00 in 10.0 mi NW 5.8 mph - N/A   Clear
7:53 PM 37.9 °F 34.4 °F 12.9 °F 36% 30.00 in 10.0 mi NNW 4.6 mph - N/A   Clear
8:53 PM 36.0 °F 32.1 °F 15.1 °F 43% 30.01 in 10.0 mi North 4.6 mph - N/A   Mostly Cloudy
9:53 PM 36.0 °F 27.5 °F 12.9 °F 39% 30.00 in 10.0 mi North 12.7 mph 20.7 mph N/A   Overcast
10:53 PM 34.0 °F 25.0 °F 19.0 °F 54% 30.00 in 10.0 mi NNE 12.7 mph 21.9 mph N/A   Overcast
11:53 PM 33.1 °F 24.9 °F 18.0 °F 54% 29.99 in 10.0 mi North 10.4 mph - N/A   Overcast